Date,TemperatureHighF,TemperatureAvgF,TemperatureLowF,DewpointHighF,DewpointAvgF,DewpointLowF,HumidityHigh,HumidityAvg,HumidityLow,PressureMaxIn,PressureMinIn,WindSpeedMaxMPH,WindSpeedAvgMPH,GustSpeedMaxMPH,PrecipitationSumIn
2013-4-1,63.2,45.7,34.4,0.0,0.0,0.0,0,0,100,29.78,29.47,25,6,30,0.30
2013-4-2,43.7,35.4,29.7,41.7,3.1,0.0,0,0,100,29.88,29.74,36,8,36,0.00
2013-4-3,48.4,37.6,29.7,48.4,37.6,29.7,0,0,100,30.10,29.87,35,18,35,0.00
2013-4-4,58.8,43.1,30.7,58.3,43.1,30.6,0,0,100,30.25,30.01,22,13,22,0.00
2013-4-5,48.4,42.6,38.1,0.0,0.0,0.0,0,0,100,29.85,29.71,26,9,29,0.00
2013-4-6,48.3,37.9,30.1,0.0,0.0,0.0,0,0,100,30.33,29.85,33,8,41,0.00
2013-4-7,55.2,42.1,27.4,0.0,0.0,0.0,0,0,100,30.33,29.96,29,6,32,0.00
2013-4-8,68.2,50.1,42.9,0.0,0.0,0.0,0,0,100,30.10,29.92,20,4,21,0.00
2013-4-9,67.8,51.2,42.4,0.0,0.0,0.0,0,0,100,30.09,29.84,22,4,24,0.12
2013-4-10,54.9,46.5,43.2,0.0,0.0,0.0,0,0,100,30.00,29.85,11,1,11,0.60
2013-4-11,52.2,44.3,40.8,0.0,0.0,0.0,0,0,100,30.14,29.83,11,2,12,0.11
2013-4-12,42.5,38.1,36.2,0.0,0.0,0.0,0,0,100,30.20,29.80,30,11,30,0.57
2013-4-13,51.1,40.3,34.5,0.0,0.0,0.0,0,0,100,29.91,29.75,26,3,29,0.06
2013-4-14,56.9,46.3,38.6,0.0,0.0,0.0,0,0,100,30.19,29.90,20,3,22,0.01
2013-4-15,55.8,44.3,33.6,0.0,0.0,0.0,0,0,100,30.38,30.19,17,3,18,0.00
2013-4-16,66.3,50.8,38.9,0.0,0.0,0.0,0,0,100,30.39,30.00,28,8,29,0.00
2013-4-17,68.8,57.6,44.8,0.0,0.0,0.0,0,0,100,30.31,30.00,28,5,30,0.00
2013-4-18,60.4,48.8,37.9,0.0,0.0,0.0,0,0,100,30.44,30.14,20,4,20,0.00
2013-4-19,78.0,60.8,46.4,0.0,0.0,0.0,0,0,100,30.14,29.61,29,9,34,0.00
2013-4-20,67.7,53.0,43.6,0.0,0.0,0.0,0,0,100,30.17,29.56,24,7,27,0.35
2013-4-21,57.1,43.6,34.0,0.0,0.0,0.0,0,0,100,30.67,30.17,28,4,28,0.00
2013-4-22,53.9,42.9,31.2,0.0,0.0,0.0,0,0,100,30.78,30.60,18,5,18,0.00
2013-4-23,41.7,40.9,39.7,0.0,0.0,0.0,0,0,100,30.60,30.13,26,8,27,0.10
2013-4-24,64.0,50.2,41.4,0.0,0.0,0.0,0,0,100,30.14,29.77,23,5,25,0.01
2013-4-25,68.7,56.5,46.1,0.0,0.0,0.0,0,0,100,30.25,29.78,23,5,26,0.05
2013-4-26,58.4,49.4,44.1,0.0,0.0,0.0,0,0,100,30.42,30.25,17,3,18,0.00
2013-4-27,61.7,50.5,38.4,0.0,0.0,0.0,0,0,100,30.41,30.28,14,3,14,0.00
2013-4-28,62.9,51.6,40.2,0.0,0.0,0.0,0,0,100,30.34,30.22,19,3,19,0.00
2013-4-29,65.0,53.0,45.6,0.0,0.0,0.0,0,0,100,30.26,30.18,17,3,19,0.00
2013-4-30,67.6,54.9,45.6,0.0,0.0,0.0,0,0,100,30.37,30.23,13,3,13,0.00